Date String (YYYY-MM-DD hh:mm:ss) UTC,Instrument flags,absolute air pressure of the measurement (hPa),sample flow rate (lpm),inlet stack bypass flow (lpm),air temperature of the measurement (°C),ambient temperature measured by the external sensor (°C),aerosol sample conditioner tube jacket temperature (°C),OPC LED temperature (°C),internal box temperature (°C),relative humidity of the measurement (%),span deviation,mass concentration of particles derived from Lorenz-Mie calculation of OPC scattering (μg/m³),mass concentration of particles derived from Lorenz-Mie calculation of OPC scattering (μg/m³),mass concentration of particles derived from Lorenz-Mie calculation of OPC scattering (μg/m³)
DateTimeUTC,F1_M11,P_M11,Q1_M11,Q2_M11,T1_M11,T2_M11,T3_M11,T4_M11,T5_M11,U1_M11,ZSPAN_M11,X0_M11,X2_M11,X1_M11
2023-09-15 07:00:00,SystemResetWarning,0836.3,5.00,000.00,028.3,026.8,000.0,036.8,029.8,32.4,0000.0,0003.03,0002.24,0001.81
2023-09-15 07:01:00,SystemResetWarning,0836.3,5.00,000.00,028.3,026.8,000.0,036.8,029.8,32.3,0000.0,0002.96,0002.22,0001.82
2023-09-15 07:02:00,SystemResetWarning,0836.3,5.00,000.00,028.3,026.8,000.0,036.8,029.8,32.3,0000.0,0003.04,0002.19,0001.83
2023-09-15 07:03:00,SystemResetWarning,0836.3,4.99,000.00,028.2,026.8,000.0,036.8,029.8,32.3,0000.0,0003.08,0002.18,0001.81
2023-09-15 07:04:00,SystemResetWarning,0836.3,5.01,000.00,028.2,026.8,000.0,036.8,029.8,32.3,0000.0,0003.07,0002.15,0001.78
2023-09-15 07:05:00,SystemResetWarning,0836.3,5.01,000.00,028.2,026.7,000.0,036.8,029.8,32.4,0000.0,0003.01,0002.09,0001.74
2023-09-15 07:06:00,SystemResetWarning,0836.2,5.00,000.00,028.2,026.7,000.0,036.7,029.8,32.3,0000.0,0002.94,0002.06,0001.71
2023-09-15 07:07:00,SystemResetWarning,0836.3,5.00,000.00,028.2,026.6,000.0,036.7,029.8,32.3,0000.0,0002.94,0002.04,0001.69
2023-09-15 07:08:00,SystemResetWarning,0836.3,5.00,000.00,028.2,026.6,000.0,036.7,029.7,32.3,0000.0,0003.03,0002.07,0001.68
2023-09-15 07:09:00,SystemResetWarning,0836.2,4.99,000.00,028.1,026.6,000.0,036.7,029.7,32.3,0000.0,0002.95,0002.03,0001.67
2023-09-15 07:10:00,SystemResetWarning,0836.2,5.00,000.00,028.1,026.5,000.0,036.7,029.7,32.4,0000.0,0002.93,0001.99,0001.66
2023-09-15 07:11:00,SystemResetWarning,0836.2,5.00,000.00,028.1,026.5,000.0,036.7,029.7,32.4,0000.0,0002.93,0001.97,0001.64
2023-09-15 07:12:00,SystemResetWarning,0836.2,5.00,000.00,028.1,026.5,000.0,036.7,029.6,32.5,0000.0,0002.88,0001.94,0001.62
2023-09-15 07:13:00,SystemResetWarning,0836.2,5.00,000.00,028.0,026.5,000.0,036.6,029.6,32.6,0000.0,0002.71,0001.93,0001.61
2023-09-15 07:14:00,SystemResetWarning,0836.2,5.01,000.00,028.0,026.4,000.0,036.6,029.6,32.6,0000.0,0002.69,0001.94,0001.61
2023-09-15 07:15:00,SystemResetWarning,0836.2,5.00,000.00,028.0,026.4,000.0,036.6,029.6,32.7,0000.0,0002.69,0001.95,0001.62
2023-09-15 07:16:00,SystemResetWarning,0836.2,5.01,000.00,028.0,026.4,000.0,036.6,029.6,32.8,0000.0,0002.70,0001.97,0001.62
2023-09-15 07:17:00,SystemResetWarning,0836.2,5.00,000.00,028.0,026.4,000.0,036.6,029.6,32.7,0000.0,0002.69,0001.95,0001.61
2023-09-15 07:18:00,SystemResetWarning,0836.2,5.00,000.00,028.0,026.5,000.0,036.6,029.6,32.8,0000.0,0002.76,0001.97,0001.63
2023-09-15 07:19:00,SystemResetWarning,0836.2,5.00,000.00,028.0,026.4,000.0,036.6,029.6,32.8,0000.0,0002.85,0001.98,0001.64
2023-09-15 07:20:00,SystemResetWarning,0836.2,5.00,000.00,028.0,026.5,000.0,036.6,029.5,32.8,0000.0,0002.81,0001.95,0001.63
2023-09-15 07:21:00,SystemResetWarning,0836.2,5.00,000.00,028.0,026.5,000.0,036.6,029.6,32.7,0000.0,0002.86,0001.97,0001.63
2023-09-15 07:22:00,SystemResetWarning,0836.2,5.00,000.00,028.0,026.5,000.0,036.6,029.6,32.7,0000.0,0002.98,0002.01,0001.65
2023-09-15 07:23:00,SystemResetWarning,0836.2,5.00,000.00,028.0,026.5,000.0,036.6,029.6,32.7,0000.0,0003.13,0002.07,0001.66
2023-09-15 07:24:00,SystemResetWarning,0836.2,5.00,000.00,028.0,026.4,000.0,036.5,029.5,32.7,0000.0,0003.20,0002.09,0001.69
2023-09-15 07:25:00,SystemResetWarning,0836.2,5.00,000.00,027.9,026.4,000.0,036.5,029.5,32.7,0000.0,0003.19,0002.10,0001.69
2023-09-15 07:26:00,SystemResetWarning,0836.2,5.02,000.00,027.9,026.4,000.0,036.5,029.5,32.7,0000.0,0003.10,0002.07,0001.69
2023-09-15 07:27:00,SystemResetWarning,0836.1,5.01,000.00,027.9,026.4,000.0,036.5,029.5,32.9,0000.0,0003.06,0002.08,0001.70
2023-09-15 07:28:00,SystemResetWarning,0836.1,5.00,000.00,027.9,026.4,000.0,036.5,029.5,33.0,0000.0,0003.03,0002.08,0001.69
2023-09-15 07:29:00,SystemResetWarning,0836.1,5.00,000.00,027.9,026.5,000.0,036.5,029.5,33.0,0000.0,0002.96,0002.07,0001.69
2023-09-15 07:30:00,SystemResetWarning,0836.1,4.99,000.00,027.9,026.5,000.0,036.5,029.5,33.0,0000.0,0002.95,0002.04,0001.68
2023-09-15 07:31:00,SystemResetWarning,0836.1,4.99,000.00,027.9,026.6,000.0,036.5,029.5,33.0,0000.0,0003.17,0002.04,0001.67
2023-09-15 07:32:00,SystemResetWarning,0836.1,4.99,000.00,028.0,026.6,000.0,036.5,029.5,33.1,0000.0,0003.12,0002.04,0001.66
2023-09-15 07:33:00,SystemResetWarning,0836.1,5.00,000.00,028.0,026.6,000.0,036.5,029.6,33.1,0000.0,0002.98,0002.02,0001.65
2023-09-15 07:34:00,SystemResetWarning,0836.1,5.00,000.00,028.0,026.6,000.0,036.5,029.6,33.1,0000.0,0002.85,0001.97,0001.63
2023-09-15 07:35:00,SystemResetWarning,0836.1,5.00,000.00,028.0,026.7,000.0,036.5,029.6,33.1,0000.0,0002.78,0001.95,0001.61
2023-09-15 07:36:00,SystemResetWarning,0836.1,5.00,000.00,028.0,026.7,000.0,036.5,029.6,33.1,0000.0,0002.68,0001.90,0001.59
2023-09-15 07:37:00,SystemResetWarning,0836.1,5.00,000.00,028.0,026.7,000.0,036.5,029.6,33.0,0000.0,0002.68,0001.89,0001.58
2023-09-15 07:38:00,SystemResetWarning,0836.1,5.00,000.00,028.0,026.7,000.0,036.5,029.6,33.0,0000.0,0002.67,0001.86,0001.58
2023-09-15 07:39:00,SystemResetWarning,0836.1,5.00,000.00,028.0,026.7,000.0,036.5,029.6,33.0,0000.0,0002.72,0001.85,0001.57
2023-09-15 07:40:00,SystemResetWarning,0836.1,5.00,000.00,028.0,026.7,000.0,036.5,029.6,33.0,0000.0,0002.78,0001.81,0001.55
2023-09-15 07:41:00,SystemResetWarning,0836.1,5.00,000.00,028.0,026.7,000.0,036.5,029.6,33.0,0000.0,0003.15,0001.79,0001.55
2023-09-15 07:42:00,SystemResetWarning,0836.1,5.00,000.00,028.0,026.7,000.0,036.5,029.6,32.9,0000.0,0002.81,0001.77,0001.55
2023-09-15 07:43:00,SystemResetWarning,0836.1,5.00,000.00,028.0,026.7,000.0,036.5,029.6,32.9,0000.0,0002.85,0001.77,0001.54
2023-09-15 07:44:00,SystemResetWarning,0836.1,5.00,000.00,028.0,026.7,000.0,036.5,029.6,32.9,0000.0,0002.76,0001.73,0001.53
2023-09-15 07:45:00,SystemResetWarning,0836.1,5.00,000.00,028.0,026.6,000.0,036.5,029.6,33.0,0000.0,0002.81,0001.74,0001.51
2023-09-15 07:46:00,SystemResetWarning,0836.1,5.00,000.00,028.0,026.7,000.0,036.5,029.6,32.9,0000.0,0002.84,0001.74,0001.50
2023-09-15 07:47:00,SystemResetWarning,0836.1,4.99,000.00,028.0,026.6,000.0,036.5,029.6,33.0,0000.0,0002.89,0001.76,0001.49
2023-09-15 07:48:00,SystemResetWarning,0836.1,5.00,000.00,028.0,026.6,000.0,036.5,029.6,33.1,0000.0,0002.96,0001.77,0001.48
2023-09-15 07:49:00,SystemResetWarning,0836.1,5.00,000.00,028.0,026.6,000.0,036.5,029.6,33.1,0000.0,0003.03,0001.77,0001.47
2023-09-15 07:50:00,SystemResetWarning,0836.1,4.99,000.00,028.0,026.6,000.0,036.5,029.6,33.1,0000.0,0002.96,0001.76,0001.47
2023-09-15 07:51:00,SystemResetWarning,0836.1,5.01,000.00,028.0,026.6,000.0,036.5,029.6,33.1,0000.0,0002.92,0001.78,0001.49
2023-09-15 07:52:00,SystemResetWarning,0836.1,4.99,000.00,028.0,026.6,000.0,036.5,029.6,33.2,0000.0,0002.44,0001.80,0001.49
2023-09-15 07:53:00,SystemResetWarning,0836.1,5.00,000.00,028.0,026.6,000.0,036.5,029.6,33.1,0000.0,0002.45,0001.81,0001.51
2023-09-15 07:54:00,SystemResetWarning,0836.1,5.00,000.00,028.0,026.6,000.0,036.5,029.6,33.0,0000.0,0002.47,0001.85,0001.53
2023-09-15 07:55:00,SystemResetWarning,0836.1,4.99,000.00,028.0,026.5,000.0,036.5,029.6,33.0,0000.0,0002.50,0001.87,0001.55
2023-09-15 07:56:00,SystemResetWarning,0836.1,5.00,000.00,027.9,026.5,000.0,036.5,029.6,33.0,0000.0,0002.50,0001.88,0001.58
2023-09-15 07:57:00,SystemResetWarning,0836.1,5.00,000.00,027.9,026.5,000.0,036.5,029.6,33.0,0000.0,0002.52,0001.92,0001.62
2023-09-15 07:58:00,SystemResetWarning,0836.1,4.99,000.00,027.9,026.4,000.0,036.5,029.5,33.1,0000.0,0002.54,0001.94,0001.63
2023-09-15 07:59:00,SystemResetWarning,0836.1,5.03,000.00,027.9,026.4,000.0,036.4,029.5,33.2,0000.0,0002.62,0001.98,0001.66
